Flag for Poland Weather past 2 weeks in Zabrze, Poland

Now
43 °F

Light rain. Passing clouds.


Feels Like: 36 °F
Forecast: 22 / 37 °F
Wind: 13 mph from Southwest

Location: Katowice Airport

Current Time: Dec 25, 2014 at 2:47:22 AM

Latest Report: Dec 25, 2014 at 2:00 AM


Visibility: N/A

Pressure: 29.89 "Hg

Humidity: 87%

Dew point: 39 °F

Location of ZabrzeLocation

Historic Weather in Zabrze — Graph

°F

Zabrze temperature yesterday

Maximum temperature yesterday: 48 °F (at 12:00 AM)
Minimum temperature yesterday: 39 °F (at 6:30 PM)
Average temperature yesterday: 44 °F

Past Weeks' High & Low Weather Summary

 TemperatureHumidityPressure
High52 °F (Dec 19, 11:30 AM)100% (Dec 10, 1:30 AM)30.36 "Hg (Dec 10, 1:30 AM)
Low16 °F (Dec 10, 7:00 AM)46% (Dec 12, 8:00 PM)29.71 "Hg (Dec 12, 5:30 PM)
Average41 °F81%29.93 "Hg
* Reported Dec 10 1:00 AM — Dec 25 1:30 AM, Zabrze, Weather by CustomWeather, © 2014

Note: Actual official high and low records may vary slightly from our data, if they occured in-between our weather recording intervals... More about our weather records

Advertising

Zabrze weather history for previous 24 hours

 ConditionsComfort  
Time TempWeatherWind HumidityBarometerVisibility
1:30 AM
Dec 25
43 °FPassing clouds.12 mph87%29.89 "HgN/A
1:00 AM43 °FPassing clouds.14 mph93%29.89 "HgN/A
12:30 AM41 °FLight rain. Passing clouds.13 mph93%29.92 "HgN/A
12:00 AM41 °FLight rain. Passing clouds.14 mph93%29.92 "Hg5 mi
11:30 PM
Dec 24
41 °FLight rain. Passing clouds.13 mph93%29.92 "Hg4 mi
11:00 PM41 °FLight rain. Partly cloudy.13 mph93%29.92 "Hg5 mi
10:30 PM41 °FLight rain. Passing clouds.14 mph87%29.92 "HgN/A
10:00 PM41 °FLight rain. Passing clouds.14 mph87%29.92 "HgN/A
9:30 PM41 °FLight rain. Passing clouds.12 mph87%29.92 "HgN/A
9:00 PM41 °FLight rain. Passing clouds.13 mph87%29.92 "HgN/A
8:30 PM41 °FLight rain. Passing clouds.13 mph81%29.92 "HgN/A
8:00 PM39 °FLight rain. Passing clouds.14 mph87%29.92 "HgN/A
7:30 PM39 °FLight rain. Partly cloudy.14 mph87%29.92 "HgN/A
7:00 PM41 °FLight rain. Passing clouds.15 mph76%29.92 "HgN/A
6:30 PM39 °FLight rain. Passing clouds.13 mph81%29.92 "HgN/A
6:00 PM41 °FLight rain. Passing clouds.15 mph76%29.92 "HgN/A
5:30 PM41 °FLight rain. Passing clouds.14 mph76%29.92 "HgN/A
5:00 PM41 °FLight rain. Passing clouds.13 mph81%29.92 "HgN/A
4:30 PM41 °FLight rain. Passing clouds.12 mph76%29.92 "HgN/A
4:00 PM41 °FLight rain. Passing clouds.13 mph76%29.92 "HgN/A
3:30 PM41 °FLight rain. Scattered clouds.13 mph81%29.92 "HgN/A
3:00 PM43 °FScattered clouds.16 mph66%29.92 "HgN/A
2:30 PM43 °FPassing clouds.16 mph71%29.89 "HgN/A
2:00 PM45 °FPassing clouds.18 mph66%29.89 "HgN/A
1:30 PM46 °FPassing clouds.20 mph62%29.89 "HgN/A
1:00 PM46 °FScattered clouds.15 mph62%29.89 "HgN/A
12:30 PM46 °FPartly sunny.15 mph62%29.89 "HgN/A
12:00 PM46 °FPartly sunny.17 mph62%29.89 "HgN/A
11:30 AM46 °FPartly sunny.14 mph66%29.92 "HgN/A
11:00 AM45 °FPartly sunny.17 mph76%29.92 "HgN/A
10:30 AM45 °FScattered clouds.12 mph76%29.92 "HgN/A
10:00 AM45 °FPassing clouds.13 mph76%29.92 "HgN/A
9:30 AM45 °FScattered clouds.15 mph76%29.92 "HgN/A
9:00 AM45 °FPartly sunny.13 mph76%29.92 "HgN/A
8:30 AM45 °FPartly sunny.14 mph76%29.95 "HgN/A
8:00 AM45 °FPartly sunny.13 mph76%29.92 "HgN/A
7:30 AM45 °FPassing clouds.13 mph81%29.92 "HgN/A
7:00 AM45 °FPassing clouds.13 mph76%29.92 "HgN/A
6:30 AM46 °FPassing clouds.13 mph76%29.92 "HgN/A
6:00 AM46 °FPassing clouds.9 mph76%29.92 "HgN/A
5:30 AM46 °FPartly cloudy.12 mph76%29.92 "HgN/A
5:00 AM46 °FPassing clouds.13 mph76%29.92 "HgN/A
4:30 AM46 °FPassing clouds.10 mph76%29.95 "HgN/A
4:00 AM46 °FPassing clouds.10 mph76%29.95 "HgN/A
3:30 AM46 °FPassing clouds.12 mph76%29.95 "HgN/A
3:00 AM48 °FPassing clouds.16 mph71%29.95 "HgN/A
2:30 AM48 °FPassing clouds.16 mph71%29.95 "HgN/A
2:00 AM48 °FPassing clouds.17 mph71%29.95 "HgN/A
Weather by CustomWeather, © 2014

See weather overviewHow to use our weather pages